This is the latest recevied weather packets stored in our database for station/object IZ6EGX-13. If no packets are shown the sender has not sent any weather packets the latest 10 day(s).
| Time | Temp. | Humidity | Pressure | Rain* | Wind** | Luminosity | Snow |
|---|---|---|---|---|---|---|---|
| 1777879587 | 21.11° C | 51% | 1018.2 hPa | 0 mm | - | - | - |
| 1777878987 | 20.56° C | 51% | 1018.2 hPa | 0 mm | - | - | - |
| 1777878387 | 20° C | 52% | 1018.2 hPa | 0 mm | - | - | - |
| 1777877787 | 20° C | 52% | 1018.2 hPa | 0 mm | - | - | - |
| 1777877187 | 20° C | 53% | 1018 hPa | 0 mm | - | - | - |
| 1777876587 | 20° C | 55% | 1018 hPa | 0 mm | - | - | - |
| 1777875987 | 19.44° C | 53% | 1018.1 hPa | 0 mm | - | - | - |
| 1777875387 | 20.56° C | 50% | 1017.9 hPa | 0 mm | - | - | - |
| 1777874787 | 21.11° C | 49% | 1017.7 hPa | 0 mm | - | - | - |
| 1777874187 | 20.56° C | 51% | 1017.8 hPa | 0 mm | - | - | - |
| 1777873587 | 20° C | 50% | 1017.8 hPa | 0 mm | - | - | - |
| 1777872987 | 20.56° C | 47% | 1017.6 hPa | 0 mm | - | - | - |
| 1777872387 | 20° C | 48% | 1017.7 hPa | 0 mm | - | - | - |
| 1777871787 | 19.44° C | 50% | 1017.8 hPa | 0 mm | - | - | - |
| 1777871187 | 18.89° C | 47% | 1017.8 hPa | 0 mm | - | - | - |
| 1777870587 | 18.89° C | 48% | 1017.7 hPa | 0 mm | - | - | - |
| 1777869987 | 18.89° C | 49% | 1017.7 hPa | 0 mm | - | - | - |
| 1777869387 | 17.78° C | 50% | 1017.7 hPa | 0 mm | - | - | - |
| 1777868787 | 16.67° C | 53% | 1017.9 hPa | 0 mm | - | - | - |
| 1777868187 | 16.67° C | 53% | 1017.8 hPa | 0 mm | - | - | - |
| 1777867587 | 17.22° C | 53% | 1017.7 hPa | 0 mm | - | - | - |
| 1777866987 | 17.22° C | 52% | 1017.7 hPa | 0 mm | - | - | - |
| 1777866387 | 16.67° C | 52% | 1017.7 hPa | 0 mm | - | - | - |
| 1777865787 | 17.22° C | 52% | 1017.6 hPa | 0 mm | - | - | - |
| 1777865187 | 17.78° C | 50% | 1017.6 hPa | 0 mm | - | - | - |
* Rain latest hour (hover to see other rain measurements)
** Current wind speed in m/s (hover to see current wind gust speed)